When you browse on this site, cookies collect data to enhance your experience and personalize the content and advertising you see.
Visit our Privacy Policy to learn more. By continuing to use the site, you agree to this use of cookies and data.
  • In Austria
  • List of Countries
  • For 7 days
  • Water Temperature
  • Weather Map
  • News
  • Weather Widgets
  • user-avatar
    Login

    Hourly Weather Franceville

    Today, 19 January, Sunday

    Time Temperature Precipitation Wind Pressure Humidity
    00:00 +26°C° 0 mm 1 mps 732 mmHg 85%
    01:00 +26°C° 0 mm 1 mps 732 mmHg 86%
    02:00 +26°C° 0 mm 1 mps 731 mmHg 87%
    03:00 +25°C° 0 mm 1 mps 731 mmHg 89%
    04:00 +23°C° 0 mm 0 mps 730 mmHg 91%
    05:00 +25°C° 0 mm 1 mps 731 mmHg 90%
    06:00 +25°C° 0 mm 1 mps 731 mmHg 89%
    07:00 +26°C° 0 mm 1 mps 732 mmHg 88%
    08:00 +27°C° 0 mm 1 mps 732 mmHg 79%
    09:00 +29°C° 0 mm 1 mps 732 mmHg 70%
    10:00 +31°C° 0 mm 1 mps 732 mmHg 62%
    11:00 +33°C° 0 mm 1 mps 732 mmHg 54%
    12:00 +36°C° 0 mm 1 mps 731 mmHg 47%
    13:00 +36°C° 0 mm 0 mps 731 mmHg 40%
    14:00 +37°C° 0 mm 1 mps 730 mmHg 42%
    15:00 +36°C° 0 mm 1 mps 729 mmHg 44%
    16:00 +35°C° 0 mm 1 mps 728 mmHg 47%
    17:00 +33°C° 0 mm 1 mps 729 mmHg 54%
    18:00 +31°C° 0 mm 1 mps 729 mmHg 61%
    19:00 +29°C° 0 mm 1 mps 730 mmHg 67%
    20:00 +29°C° 0.2 mm 1 mps 730 mmHg 72%
    21:00 +28°C° 0.2 mm 1 mps 731 mmHg 78%
    22:00 +27°C° 0.2 mm 1 mps 731 mmHg 83%
    23:00 +27°C° 0.1 mm 1 mps 731 mmHg 85%

    Tomorrow, 20 January, Monday

    Time Temperature Precipitation Wind Pressure Humidity
    00:00 +26°C° 0.1 mm 1 mps 731 mmHg 86%
    01:00 +26°C° 0.1 mm 1 mps 731 mmHg 88%
    02:00 +26°C° 0 mm 1 mps 731 mmHg 89%
    03:00 +23°C° 0 mm 0 mps 730 mmHg 90%
    04:00 +23°C° 0 mm 0 mps 730 mmHg 91%
    05:00 +23°C° 0 mm 0 mps 730 mmHg 90%
    06:00 +23°C° 0 mm 0 mps 731 mmHg 90%
    07:00 +26°C° 0 mm 1 mps 731 mmHg 89%
    08:00 +28°C° 0 mm 1 mps 731 mmHg 79%
    09:00 +30°C° 0 mm 1 mps 732 mmHg 68%
    10:00 +32°C° 0 mm 2 mps 732 mmHg 57%
    11:00 +35°C° 0 mm 1 mps 731 mmHg 50%
    12:00 +37°C° 0 mm 1 mps 730 mmHg 43%
    13:00 +37°C° 0 mm 0 mps 730 mmHg 36%
    14:00 +39°C° 0 mm 1 mps 729 mmHg 38%
    15:00 +37°C° 0 mm 1 mps 729 mmHg 40%
    16:00 +36°C° 0 mm 1 mps 728 mmHg 43%
    17:00 +34°C° 0 mm 1 mps 728 mmHg 49%
    18:00 +32°C° 0 mm 1 mps 729 mmHg 55%
    19:00 +31°C° 0 mm 1 mps 729 mmHg 61%
    20:00 +30°C° 0.6 mm 1 mps 729 mmHg 67%
    21:00 +29°C° 0.6 mm 1 mps 730 mmHg 74%
    22:00 +28°C° 0.6 mm 1 mps 731 mmHg 80%
    23:00 +27°C° 0.1 mm 1 mps 730 mmHg 82%

    Day after tomorrow, 21 January, Tuesday

    Time Temperature Precipitation Wind Pressure Humidity
    00:00 +27°C° 0.1 mm 1 mps 730 mmHg 85%
    01:00 +26°C° 0.1 mm 1 mps 730 mmHg 87%
    02:00 +26°C° 0 mm 1 mps 730 mmHg 88%
    03:00 +26°C° 0 mm 1 mps 729 mmHg 89%
    04:00 +25°C° 0 mm 1 mps 729 mmHg 90%
    05:00 +25°C° 0.1 mm 1 mps 730 mmHg 90%
    06:00 +26°C° 0.1 mm 1 mps 730 mmHg 90%
    07:00 +26°C° 0.1 mm 1 mps 731 mmHg 90%
    08:00 +28°C° 0.1 mm 1 mps 731 mmHg 79%
    09:00 +30°C° 0.1 mm 1 mps 732 mmHg 69%
    10:00 +32°C° 0.1 mm 1 mps 732 mmHg 59%
    11:00 +35°C° 0 mm 1 mps 731 mmHg 52%
    12:00 +37°C° 0 mm 1 mps 731 mmHg 44%
    13:00 +38°C° 0 mm 0 mps 730 mmHg 37%
    14:00 +37°C° 0.2 mm 1 mps 729 mmHg 46%
    15:00 +35°C° 0.2 mm 1 mps 729 mmHg 54%
    16:00 +32°C° 0.2 mm 2 mps 728 mmHg 63%
    17:00 +30°C° 1 mm 1 mps 728 mmHg 71%
    18:00 +29°C° 1 mm 1 mps 729 mmHg 79%
    19:00 +27°C° 1 mm 1 mps 729 mmHg 88%
    20:00 +27°C° 0.7 mm 1 mps 730 mmHg 88%
    21:00 +27°C° 0.7 mm 1 mps 731 mmHg 89%
    22:00 +26°C° 0.7 mm 1 mps 731 mmHg 89%
    23:00 +26°C° 0 mm 1 mps 731 mmHg 90%

    22 January, Wednesday

    Time Temperature Precipitation Wind Pressure Humidity
    00:00 +26°C° 0 mm 1 mps 731 mmHg 91%
    01:00 +25°C° 0 mm 1 mps 731 mmHg 92%
    02:00 +25°C° 0 mm 1 mps 730 mmHg 93%
    03:00 +25°C° 0 mm 1 mps 730 mmHg 94%
    04:00 +25°C° 0 mm 1 mps 730 mmHg 94%
    05:00 +25°C° 0 mm 1 mps 730 mmHg 94%
    06:00 +25°C° 0 mm 1 mps 730 mmHg 93%
    07:00 +25°C° 0 mm 1 mps 731 mmHg 92%
    08:00 +27°C° 0 mm 1 mps 731 mmHg 80%
    09:00 +30°C° 0 mm 1 mps 731 mmHg 69%
    10:00 +32°C° 0 mm 2 mps 732 mmHg 57%
    11:00 +34°C° 0 mm 1 mps 731 mmHg 51%
    12:00 +36°C° 0 mm 1 mps 731 mmHg 46%
    13:00 +39°C° 0 mm 1 mps 730 mmHg 40%
    14:00 +37°C° 0 mm 1 mps 729 mmHg 41%
    15:00 +36°C° 0 mm 1 mps 729 mmHg 42%
    16:00 +36°C° 0 mm 1 mps 728 mmHg 44%
    17:00 +34°C° 0.1 mm 1 mps 728 mmHg 53%
    18:00 +32°C° 0.1 mm 1 mps 729 mmHg 62%
    19:00 +29°C° 0.1 mm 1 mps 729 mmHg 70%
    20:00 +28°C° 1.2 mm 1 mps 730 mmHg 76%
    21:00 +28°C° 1.2 mm 1 mps 730 mmHg 83%
    22:00 +25°C° 1.2 mm 0 mps 731 mmHg 89%
    23:00 +24°C° 0.1 mm 0 mps 730 mmHg 90%

    23 January, Thursday

    Time Temperature Precipitation Wind Pressure Humidity
    00:00 +26°C° 0.1 mm 1 mps 730 mmHg 91%
    01:00 +25°C° 0.1 mm 1 mps 730 mmHg 92%
    02:00 +25°C° 0 mm 1 mps 730 mmHg 93%
    03:00 +25°C° 0 mm 1 mps 729 mmHg 93%
    04:00 +24°C° 0 mm 1 mps 729 mmHg 94%
    05:00 +23°C° 0 mm 0 mps 729 mmHg 93%
    06:00 +23°C° 0 mm 0 mps 730 mmHg 93%
    07:00 +23°C° 0 mm 0 mps 730 mmHg 92%
    08:00 +27°C° 0 mm 1 mps 731 mmHg 82%
    09:00 +30°C° 0 mm 1 mps 731 mmHg 71%
    10:00 +32°C° 0 mm 1 mps 732 mmHg 60%
    11:00 +33°C° 0.1 mm 1 mps 731 mmHg 55%
    12:00 +34°C° 0.1 mm 1 mps 730 mmHg 51%
    13:00 +36°C° 0.1 mm 1 mps 730 mmHg 46%
    14:00 +35°C° 0.1 mm 1 mps 729 mmHg 48%
    15:00 +35°C° 0.1 mm 2 mps 729 mmHg 50%
    16:00 +35°C° 0.1 mm 2 mps 728 mmHg 52%
    17:00 +32°C° 0.5 mm 2 mps 728 mmHg 62%
    18:00 +30°C° 0.5 mm 1 mps 729 mmHg 72%
    19:00 +27°C° 0.5 mm 1 mps 729 mmHg 82%
    20:00 +27°C° 0.5 mm 1 mps 730 mmHg 84%
    21:00 +27°C° 0.5 mm 1 mps 730 mmHg 86%
    22:00 +26°C° 0.5 mm 1 mps 731 mmHg 88%
    23:00 +26°C° 0 mm 1 mps 730 mmHg 88%

    24 January, Friday

    Time Temperature Precipitation Wind Pressure Humidity
    00:00 +26°C° 0 mm 1 mps 730 mmHg 88%
    01:00 +25°C° 0 mm 1 mps 730 mmHg 88%
    02:00 +25°C° 0 mm 1 mps 730 mmHg 90%
    03:00 +25°C° 0 mm 1 mps 729 mmHg 91%
    04:00 +22°C° 0 mm 0 mps 729 mmHg 92%
    05:00 +22°C° 0 mm 0 mps 729 mmHg 92%
    06:00 +22°C° 0 mm 0 mps 730 mmHg 91%
    07:00 +23°C° 0 mm 0 mps 730 mmHg 90%
    08:00 +25°C° 0 mm 0 mps 731 mmHg 79%
    09:00 +30°C° 0 mm 1 mps 731 mmHg 67%
    10:00 +32°C° 0 mm 1 mps 732 mmHg 55%
    11:00 +34°C° 0 mm 1 mps 731 mmHg 50%
    12:00 +35°C° 0 mm 1 mps 730 mmHg 44%
    13:00 +38°C° 0 mm 2 mps 730 mmHg 39%
    14:00 +37°C° 0 mm 2 mps 729 mmHg 38%
    15:00 +37°C° 0 mm 2 mps 729 mmHg 38%
    16:00 +37°C° 0 mm 2 mps 728 mmHg 37%
    17:00 +35°C° 0 mm 2 mps 728 mmHg 45%
    18:00 +32°C° 0 mm 1 mps 729 mmHg 53%
    19:00 +30°C° 0 mm 1 mps 729 mmHg 60%
    20:00 +29°C° 0 mm 1 mps 729 mmHg 65%
    21:00 +28°C° 0 mm 1 mps 730 mmHg 69%
    22:00 +28°C° 0 mm 1 mps 730 mmHg 73%
    23:00 +27°C° 0 mm 1 mps 730 mmHg 75%
    Show more